• In Hungary
  • List of Countries
  • For 7 days
  • Water Temperature
  • Satellite Maps
  • Weather Map
  • News
  • Weather Widgets
  • user-avatar
    Login

    Hourly Weather Sangkhla Buri

    Today, 17 December, Sunday

    Time Temperature Precipitation Wind Pressure Humidity
    00:00 +24°C° 0 mm 1 mps 743 mmHg 77%
    01:00 +24°C° 0 mm 1 mps 743 mmHg 79%
    02:00 +24°C° 0 mm 1 mps 743 mmHg 78%
    03:00 +24°C° 0 mm 2 mps 743 mmHg 77%
    04:00 +23°C° 0 mm 2 mps 743 mmHg 77%
    05:00 +23°C° 0 mm 2 mps 743 mmHg 75%
    06:00 +23°C° 0 mm 2 mps 743 mmHg 74%
    07:00 +22°C° 0 mm 1 mps 743 mmHg 81%
    08:00 +24°C° 0 mm 1 mps 744 mmHg 70%
    09:00 +26°C° 0 mm 2 mps 744 mmHg 60%
    10:00 +29°C° 0 mm 3 mps 744 mmHg 50%
    11:00 +30°C° 0 mm 3 mps 744 mmHg 47%
    12:00 +31°C° 0 mm 3 mps 744 mmHg 44%
    13:00 +31°C° 0 mm 3 mps 744 mmHg 40%
    14:00 +31°C° 0 mm 3 mps 743 mmHg 41%
    15:00 +30°C° 0 mm 3 mps 743 mmHg 43%
    16:00 +30°C° 0 mm 3 mps 742 mmHg 44%
    17:00 +28°C° 0 mm 2 mps 743 mmHg 52%
    18:00 +25°C° 0 mm 2 mps 743 mmHg 60%
    19:00 +20°C° 0 mm 0 mps 743 mmHg 75%
    20:00 +22°C° 0 mm 1 mps 743 mmHg 76%
    21:00 +21°C° 0 mm 1 mps 743 mmHg 77%
    22:00 +21°C° 0 mm 1 mps 744 mmHg 78%
    23:00 +21°C° 0 mm 1 mps 744 mmHg 78%

    Tomorrow, 18 December, Monday

    Time Temperature Precipitation Wind Pressure Humidity
    00:00 +20°C° 0 mm 1 mps 744 mmHg 78%
    01:00 +20°C° 0 mm 1 mps 744 mmHg 79%
    02:00 +20°C° 0 mm 1 mps 744 mmHg 79%
    03:00 +20°C° 0 mm 1 mps 743 mmHg 80%
    04:00 +19°C° 0 mm 1 mps 743 mmHg 81%
    05:00 +19°C° 0 mm 1 mps 743 mmHg 81%
    06:00 +19°C° 0 mm 1 mps 743 mmHg 82%
    07:00 +18°C° 0 mm 1 mps 744 mmHg 83%
    08:00 +21°C° 0 mm 1 mps 744 mmHg 72%
    09:00 +23°C° 0 mm 2 mps 745 mmHg 61%
    10:00 +26°C° 0 mm 2 mps 745 mmHg 50%
    11:00 +27°C° 0 mm 2 mps 745 mmHg 46%
    12:00 +29°C° 0 mm 2 mps 744 mmHg 42%
    13:00 +30°C° 0 mm 2 mps 744 mmHg 39%
    14:00 +30°C° 0 mm 2 mps 743 mmHg 40%
    15:00 +30°C° 0 mm 2 mps 743 mmHg 41%
    16:00 +30°C° 0 mm 2 mps 742 mmHg 42%
    17:00 +27°C° 0 mm 2 mps 742 mmHg 50%
    18:00 +24°C° 0 mm 1 mps 743 mmHg 59%
    19:00 +22°C° 0 mm 1 mps 743 mmHg 68%
    20:00 +21°C° 0 mm 1 mps 744 mmHg 71%
    21:00 +20°C° 0 mm 1 mps 744 mmHg 73%
    22:00 +19°C° 0 mm 1 mps 745 mmHg 76%
    23:00 +19°C° 0 mm 1 mps 745 mmHg 76%

    Day after tomorrow, 19 December, Tuesday

    Time Temperature Precipitation Wind Pressure Humidity
    00:00 +18°C° 0 mm 1 mps 745 mmHg 77%
    01:00 +18°C° 0 mm 1 mps 744 mmHg 77%
    02:00 +16°C° 0 mm 1 mps 744 mmHg 76%
    03:00 +16°C° 0 mm 1 mps 744 mmHg 75%
    04:00 +16°C° 0 mm 1 mps 743 mmHg 74%
    05:00 +15°C° 0 mm 1 mps 744 mmHg 74%
    06:00 +15°C° 0 mm 1 mps 744 mmHg 73%
    07:00 +15°C° 0 mm 1 mps 744 mmHg 73%
    08:00 +19°C° 0 mm 1 mps 745 mmHg 62%
    09:00 +20°C° 0 mm 2 mps 745 mmHg 52%
    10:00 +24°C° 0 mm 2 mps 746 mmHg 41%
    11:00 +26°C° 0 mm 2 mps 746 mmHg 38%
    12:00 +27°C° 0 mm 3 mps 745 mmHg 34%
    13:00 +28°C° 0 mm 3 mps 744 mmHg 31%
    14:00 +28°C° 0 mm 3 mps 744 mmHg 31%
    15:00 +28°C° 0 mm 2 mps 743 mmHg 31%
    16:00 +28°C° 0 mm 2 mps 742 mmHg 31%
    17:00 +25°C° 0 mm 2 mps 743 mmHg 40%
    18:00 +22°C° 0 mm 1 mps 743 mmHg 48%
    19:00 +20°C° 0 mm 1 mps 744 mmHg 57%
    20:00 +19°C° 0 mm 1 mps 744 mmHg 60%
    21:00 +18°C° 0 mm 1 mps 745 mmHg 63%
    22:00 +16°C° 0 mm 1 mps 745 mmHg 65%
    23:00 +16°C° 0 mm 1 mps 745 mmHg 67%

    20 December, Wednesday

    Time Temperature Precipitation Wind Pressure Humidity
    00:00 +15°C° 0 mm 1 mps 745 mmHg 69%
    01:00 +15°C° 0 mm 1 mps 745 mmHg 71%
    02:00 +15°C° 0 mm 1 mps 745 mmHg 72%
    03:00 +15°C° 0 mm 1 mps 744 mmHg 72%
    04:00 +15°C° 0 mm 1 mps 744 mmHg 73%
    05:00 +14°C° 0 mm 1 mps 744 mmHg 71%
    06:00 +14°C° 0 mm 1 mps 745 mmHg 69%
    07:00 +14°C° 0 mm 1 mps 745 mmHg 67%
    08:00 +17°C° 0 mm 2 mps 746 mmHg 55%
    09:00 +20°C° 0 mm 2 mps 747 mmHg 44%
    10:00 +24°C° 0 mm 3 mps 747 mmHg 32%
    11:00 +25°C° 0 mm 3 mps 747 mmHg 28%
    12:00 +27°C° 0 mm 3 mps 746 mmHg 24%
    13:00 +28°C° 0 mm 3 mps 745 mmHg 20%
    14:00 +28°C° 0 mm 3 mps 744 mmHg 21%
    15:00 +28°C° 0 mm 3 mps 744 mmHg 22%
    16:00 +28°C° 0 mm 2 mps 743 mmHg 22%
    17:00 +25°C° 0 mm 2 mps 743 mmHg 30%
    18:00 +21°C° 0 mm 2 mps 744 mmHg 38%
    19:00 +19°C° 0 mm 1 mps 745 mmHg 46%
    20:00 +18°C° 0 mm 1 mps 745 mmHg 49%
    21:00 +16°C° 0 mm 1 mps 746 mmHg 52%
    22:00 +15°C° 0 mm 1 mps 746 mmHg 54%
    23:00 +15°C° 0 mm 1 mps 746 mmHg 56%

    21 December, Thursday

    Time Temperature Precipitation Wind Pressure Humidity
    00:00 +14°C° 0 mm 1 mps 745 mmHg 58%
    01:00 +14°C° 0 mm 1 mps 745 mmHg 59%
    02:00 +14°C° 0 mm 1 mps 745 mmHg 60%
    03:00 +14°C° 0 mm 1 mps 744 mmHg 60%
    04:00 +13°C° 0 mm 1 mps 744 mmHg 61%
    05:00 +13°C° 0 mm 1 mps 744 mmHg 61%
    06:00 +13°C° 0 mm 1 mps 745 mmHg 61%
    07:00 +13°C° 0 mm 1 mps 745 mmHg 61%
    08:00 +16°C° 0 mm 2 mps 746 mmHg 51%
    09:00 +20°C° 0 mm 2 mps 746 mmHg 41%
    10:00 +24°C° 0 mm 2 mps 747 mmHg 31%
    11:00 +26°C° 0 mm 2 mps 746 mmHg 29%
    12:00 +27°C° 0 mm 2 mps 745 mmHg 28%
    13:00 +29°C° 0 mm 2 mps 744 mmHg 26%
    14:00 +28°C° 0 mm 2 mps 744 mmHg 28%
    15:00 +28°C° 0 mm 2 mps 743 mmHg 30%
    16:00 +28°C° 0 mm 2 mps 742 mmHg 32%
    17:00 +25°C° 0 mm 1 mps 743 mmHg 39%
    18:00 +22°C° 0 mm 1 mps 743 mmHg 47%
    19:00 +20°C° 0 mm 1 mps 743 mmHg 55%
    20:00 +19°C° 0 mm 1 mps 744 mmHg 57%
    21:00 +18°C° 0 mm 1 mps 744 mmHg 59%
    22:00 +16°C° 0 mm 1 mps 744 mmHg 61%
    23:00 +16°C° 0 mm 1 mps 744 mmHg 61%

    22 December, Friday

    Time Temperature Precipitation Wind Pressure Humidity
    00:00 +16°C° 0 mm 1 mps 743 mmHg 60%
    01:00 +15°C° 0 mm 1 mps 743 mmHg 60%
    02:00 +15°C° 0 mm 1 mps 743 mmHg 59%
    03:00 +16°C° 0 mm 1 mps 742 mmHg 58%
    04:00 +16°C° 0 mm 1 mps 742 mmHg 57%
    05:00 +16°C° 0 mm 1 mps 742 mmHg 56%
    06:00 +16°C° 0 mm 1 mps 743 mmHg 55%
    07:00 +16°C° 0 mm 1 mps 743 mmHg 55%
    08:00 +20°C° 0 mm 1 mps 743 mmHg 48%
    09:00 +24°C° 0 mm 1 mps 744 mmHg 41%
    10:00 +27°C° 0 mm 1 mps 744 mmHg 34%
    11:00 +29°C° 0 mm 1 mps 744 mmHg 32%
    12:00 +31°C° 0 mm 1 mps 743 mmHg 30%
    13:00 +33°C° 0 mm 1 mps 742 mmHg 28%
    14:00 +33°C° 0 mm 1 mps 742 mmHg 30%
    15:00 +32°C° 0 mm 1 mps 741 mmHg 31%
    16:00 +32°C° 0 mm 1 mps 740 mmHg 33%
    17:00 +29°C° 0 mm 1 mps 741 mmHg 42%
    18:00 +26°C° 0 mm 1 mps 741 mmHg 50%
    19:00 +21°C° 0 mm 0 mps 741 mmHg 59%
    20:00 +21°C° 0 mm 0 mps 742 mmHg 61%
    21:00 +20°C° 0 mm 0 mps 742 mmHg 62%
    22:00 +22°C° 0 mm 1 mps 742 mmHg 64%
    23:00 +21°C° 0 mm 1 mps 742 mmHg 64%
    Show more